Regional Weather Roundup
Issued by NWS Charleston, WV

Home | Current Version | Previous Version | Graphics & Text | Print | Product List | Glossary On
Versions: 1 2 3 4 5 6 7 8 9 10 11 12 13 14 15 16 17 18 19 20 21 22 23 24 25 26 27 28 29 30 31 32 33 34 35 36 37 38 39 40 41 42 43 44 45 46 47 48 49 50
000
ASUS41 KRLX 030710
RWRRLX
West Virginia Regional Weather Roundup
National Weather Service Charleston WV
300 AM EDT FRI JUL 03 2015

Note: "fair" indicates few or no clouds below 12,000 feet with no
significant weather and/or obstructions to visibility.

WVZ003-030800-
Northern Panhandle of West Virginia

CITY           SKY/WX    TMP DP  RH WIND       PRES   REMARKS
WHEELING       CLEAR     60  55  83 CALM      29.97R
$$

WVZ009-030800-
Northwest West Virginia

CITY           SKY/WX    TMP DP  RH WIND       PRES   REMARKS
PARKERSBURG    MOCLDY    64  62  93 N3        29.95F FOG
$$

WVZ006-030800-
Western West Virginia

CITY           SKY/WX    TMP DP  RH WIND       PRES   REMARKS
HUNTINGTON     CLOUDY    67  65  93 CALM      29.89F FOG
$$

WVZ015-030800-
West Central West Virginia

CITY           SKY/WX    TMP DP  RH WIND       PRES   REMARKS
CHARLESTON     MOCLDY    66  63  90 CALM      29.91F FOG
$$

WVZ022-031-030800-
North Central West Virginia

CITY           SKY/WX    TMP DP  RH WIND       PRES   REMARKS
CLARKSBURG     CLEAR     59  58  96 CALM      29.96S FOG
MORGANTOWN     CLEAR     58  54  86 CALM      29.97F FOG
$$

WVZ025-035-042-045-030800-
Southern West Virginia

CITY           SKY/WX    TMP DP  RH WIND       PRES   REMARKS
BECKLEY        LGT RAIN  64  61  90 SE6       29.98F FOG
LOGAN          CLOUDY    68  66  94 CALM      29.90S
BLUEFIELD      CLOUDY    65  61  87 CALM      29.99F FOG
LEWISBURG      CLOUDY    65  62  92 NE3       29.98F FOG
$$

WVZ047-030800-
Northern Mountains of West Virginia

CITY           SKY/WX    TMP DP  RH WIND       PRES   REMARKS
ELKINS         CLOUDY    59  56  89 CALM      30.00F FOG
$$

WVZ052-030800-
Eastern Panhandle of West Virginia

CITY           SKY/WX    TMP DP  RH WIND       PRES   REMARKS
MARTINSBURG    FOG       64  62  93 CALM      29.94S VSB 1/4
PETERSBURG     CLEAR     57  54  91 CALM      29.97F FOG
$$



USA.gov is the U.S. government's official web portal to all federal, state and local government web resources and services.